Overview Statistics Trail Chart Weather Telemetry Raw packets
 

This is the latest recevied weather packets stored in our database for station/object KQ4WWD. If no packets are shown the sender has not sent any weather packets the latest 10 day(s).

<< 58 59 60 61 62 63 64 >>
Time Temp. Humidity Pressure Rain* Wind** Luminosity Snow
1788210648 26.11° C 90% 1016.2 hPa 13.72 mm - 174 W/m² -
1788210343 26.11° C 89% 1016.3 hPa 6.1 mm - 142 W/m² -
1788210040 27.78° C 89% 1016.4 hPa 1.27 mm - 127 W/m² -
1788209739 29.44° C 84% 1016.1 hPa 0 mm - 177 W/m² -
1788209436 30.56° C 79% 1016.2 hPa 0 mm - 573 W/m² -
1788209130 31.11° C 77% 1016.1 hPa 0 mm - 536 W/m² -
1788208828 31.11° C 77% 1015.9 hPa 0 mm - 632 W/m² -
1788208523 30.56° C 78% 1015.9 hPa 0 mm - 659 W/m² -
1788208222 30° C 78% 1015.8 hPa 0 mm - 678 W/m² -
1788207922 30° C 79% 1016.1 hPa 0 mm - 297 W/m² -
1788207621 30.56° C 78% 1016.1 hPa 0 mm - 702 W/m² -
1788207320 30° C 77% 1015.9 hPa 0 mm - 355 W/m² -
1788207016 29.44° C 79% 1015.9 hPa 0 mm - 249 W/m² -
1788206712 30.56° C 78% 1016.1 hPa 0 mm - 595 W/m² -
1788206406 32.22° C 74% 1016 hPa 0 mm - 157 W/m² -
1788206102 34.44° C 58% 1015.7 hPa 0 mm - 203 W/m² -
1788205801 35° C 56% 1015.6 hPa 0 mm - 760 W/m² -
1788205497 34.44° C 59% 1015.3 hPa 0 mm - 715 W/m² -
1788205197 33.89° C 61% 1015.3 hPa 0 mm - 660 W/m² -
1788204892 35° C 58% 1015.5 hPa 0 mm - 658 W/m² -
1788204587 35° C 57% 1015.4 hPa 0 mm - 661 W/m² -
1788204282 34.44° C 57% 1015.4 hPa 0 mm - 659 W/m² -
1788203977 34.44° C 58% 1015.2 hPa 0 mm - 661 W/m² -
1788203673 34.44° C 60% 1015.3 hPa 0 mm - 647 W/m² -
1788203370 34.44° C 61% 1015.6 hPa 0 mm - 654 W/m² -

* Rain latest hour (hover to see other rain measurements)
** Current wind speed in m/s (hover to see current wind gust speed)